Regional Weather Roundup
Issued by NWS

Home | Current Version | Previous Version | Text Only | Print | Product List | Glossary Off
Versions: 1 2 3 4 5 6 7 8 9 10 11 12 13 14 15 16 17 18 19 20 21 22 23 24 25 26 27 28 29 30 31 32 33 34 35 36 37 38 39 40 41 42 43 44 45 46 47 48 49 50

000
ASUS43 KIND 252159
RWRIN

WEATHER ROUNDUP FOR INDIANA
NATIONAL WEATHER SERVICE INDIANAPOLIS IN
600 PM EDT SAT APR 25 2015

NOTE: "FAIR" INDICATES FEW OR NO CLOUDS BELOW 12,000 FEET WITH NO
SIGNIFICANT WEATHER AND/OR OBSTRUCTIONS TO VISIBILITY.

* - STATION DOES NOT REPORT WEATHER SUCH AS PRECIPITATION OR FOG.

+ - STATION NOT QUALITY CONTROLLED BY THE NATIONAL WEATHER SERVICE.
    USE DATA WITH CAUTION...ESPECIALLY DEWPOINT AND RELATIVE
    HUMIDITY OBSERVATIONS.

INZ001>003-010>013-019-020-252300-
NORTHWEST INDIANA

CITY           SKY/WX    TMP DP  RH WIND       PRES   REMARKS
GARY /AIRPORT/ CLOUDY    46  39  76 E14G31    29.74R

$$

LMZ046-743>745-252300-
SOUTHERN LAKE MICHIGAN

STATION/POSITION TIME  TEMP    WIND        PRES    WAVE
                       AIR SEA DIR/SP/G            HT
                 (UTC) (F)     (DEG/KT/KT) (MB)    (FT)
BURNS HARBOR     2100   46      60/ 21/ 24 1006.4F
MICHIGAN CITY    2100   45      50/ 20/ 24   N/A
5NW MICH CITY    2100   45 45   80/ 17/ 23   N/A     3

$$

INZ004-005-014>016-021>024-252300-
NORTH CENTRAL INDIANA

CITY           SKY/WX    TMP DP  RH WIND       PRES   REMARKS
GOSHEN         CLOUDY    47  38  71 E22G29    29.72F
SOUTH BEND     CLOUDY    47  40  76 E16G26    29.73F

$$

INZ006>009-017-018-025>027-252300-
NORTHEAST INDIANA

CITY           SKY/WX    TMP DP  RH WIND       PRES   REMARKS
ANGOLA *+      SUNNY     43  36  75 E14       29.77F
FORT WAYNE     LGT RAIN  45  41  86 E16G26    29.71F FOG

$$

INZ028-029-035-036-043>045-051>053-252300-
WEST CENTRAL INDIANA

CITY           SKY/WX    TMP DP  RH WIND       PRES   REMARKS
GREENCASTLE +  CLOUDY    45  41  87 SE13      29.61S
LAFAYETTE      CLOUDY    45  42  89 E17G26    29.64R
TERRE HAUTE    LGT RAIN  49  46  90 E14       29.59R

$$

INZ030>032-037>040-046>048-054>057-064-065-252300-
CENTRAL INDIANA

CITY           SKY/WX    TMP DP  RH WIND       PRES   REMARKS
COLUMBUS       CLOUDY    46  41  81 E16       29.63S
GREENWOOD *+   CLOUDY    46  41  81 E13G18    29.63S
INDIANAPOLIS   CLOUDY    46  42  86 E14       29.60S
-EAGLE CREEK   CLOUDY    46  43  89 E9        29.62F
KOKOMO *+      CLOUDY    45  39  81 E22       29.65F
MT COMFORT *+  CLOUDY    46 N/A N/A E15G23    29.63F
SHELBYVILLE    CLOUDY    48  43  82 E17       29.63R

$$

INZ033-034-041-042-049-050-058-059-252300-
EAST CENTRAL INDIANA

CITY           SKY/WX    TMP DP  RH WIND       PRES   REMARKS
MUNCIE         CLOUDY    45  41  86 E18       29.66F

$$

INZ060-061-067>069-081>083-085>088-252300-
SOUTHWEST INDIANA

CITY           SKY/WX    TMP DP  RH WIND       PRES   REMARKS
EVANSVILLE     LGT RAIN  68  60  75 NE12      29.46F
HUNTINGBURG *+ CLOUDY    57  54  88 NE14      29.51F

$$

INZ062-063-066-070>080-084-089>092-252300-
SOUTH CENTRAL AND SOUTHEAST INDIANA

CITY           SKY/WX    TMP DP  RH WIND       PRES   REMARKS
BLOOMINGTON    LGT RAIN  49  47  93 E10       29.59R FOG
MADISON *+     CLOUDY    46  45  93 NE15      29.62R
SEYMOUR +      CLOUDY    50  50 100 E9        29.59F FOG

$$




USA.gov is the U.S. government's official web portal to all federal, state and local government web resources and services.